Time,TemperatureF,DewpointF,PressureIn,WindDirection,WindDirectionDegrees,WindSpeedMPH,WindSpeedGustMPH,Humidity,HourlyPrecipIn,Conditions,Clouds,dailyrainin,SoftwareType,DateUTC
2013-03-24 00:00:00,31.7,21.2,30.02,SSW,203,0.0,0.9,65,0.00,,,0.00,WUHU216HW,2013-03-24 04:00:00,
2013-03-24 00:05:00,31.7,21.6,30.01,SE,135,1.1,1.8,66,0.00,,,0.00,WUHU216HW,2013-03-24 04:05:00,
2013-03-24 00:10:00,31.7,21.2,30.01,ENE,68,0.2,1.8,65,0.00,,,0.00,WUHU216HW,2013-03-24 04:10:00,
2013-03-24 00:15:00,31.5,21.4,30.01,ENE,68,1.3,1.3,66,0.00,,,0.00,WUHU216HW,2013-03-24 04:15:00,
2013-03-24 00:20:00,31.3,21.2,30.01,ENE,68,0.4,1.3,66,0.00,,,0.00,WUHU216HW,2013-03-24 04:20:00,
2013-03-24 00:25:00,31.3,21.2,30.00,East,90,1.3,1.3,66,0.00,,,0.00,WUHU216HW,2013-03-24 04:25:00,
2013-03-24 00:30:00,31.3,21.2,30.00,ESE,113,1.6,2.0,66,0.00,,,0.00,WUHU216HW,2013-03-24 04:30:00,
2013-03-24 00:35:00,31.3,21.2,29.99,East,90,2.0,2.0,66,0.00,,,0.00,WUHU216HW,2013-03-24 04:35:00,
2013-03-24 00:40:00,31.1,21.1,29.99,SW,225,1.1,2.0,66,0.00,,,0.00,WUHU216HW,2013-03-24 04:40:00,
2013-03-24 00:45:00,31.0,20.9,29.99,East,90,0.4,1.1,66,0.00,,,0.00,WUHU216HW,2013-03-24 04:45:00,
2013-03-24 00:50:00,30.8,20.7,29.99,East,90,0.2,1.1,66,0.00,,,0.00,WUHU216HW,2013-03-24 04:50:00,
2013-03-24 00:55:00,30.6,20.2,29.99,East,90,1.8,1.8,65,0.00,,,0.00,WUHU216HW,2013-03-24 04:55:00,
2013-03-24 01:00:00,30.6,20.5,29.98,ESE,113,0.2,1.8,66,0.00,,,0.00,WUHU216HW,2013-03-24 05:00:00,
2013-03-24 01:05:00,30.6,20.5,29.99,ENE,68,0.9,1.1,66,0.00,,,0.00,WUHU216HW,2013-03-24 05:05:00,
2013-03-24 01:10:00,30.6,20.5,30.00,East,90,1.3,1.3,66,0.00,,,0.00,WUHU216HW,2013-03-24 05:10:00,
2013-03-24 01:15:00,30.4,20.7,30.00,East,90,0.0,1.3,67,0.00,,,0.00,WUHU216HW,2013-03-24 05:15:00,
2013-03-24 01:20:00,30.4,20.3,30.00,East,90,0.0,1.1,66,0.00,,,0.00,WUHU216HW,2013-03-24 05:20:00,
2013-03-24 01:25:00,30.2,20.5,29.99,ENE,68,0.9,0.9,67,0.00,,,0.00,WUHU216HW,2013-03-24 05:25:00,
2013-03-24 01:30:00,30.2,20.5,29.99,East,90,0.2,0.9,67,0.00,,,0.00,WUHU216HW,2013-03-24 05:30:00,
2013-03-24 01:35:00,30.2,20.5,29.99,East,90,0.2,0.7,67,0.00,,,0.00,WUHU216HW,2013-03-24 05:35:00,
2013-03-24 01:40:00,30.1,20.3,29.99,East,90,0.4,0.7,67,0.00,,,0.00,WUHU216HW,2013-03-24 05:40:00,
2013-03-24 01:45:00,29.9,20.2,29.99,ESE,113,1.1,1.8,67,0.00,,,0.00,WUHU216HW,2013-03-24 05:45:00,
2013-03-24 01:50:00,29.9,20.2,29.99,East,90,0.7,1.8,67,0.00,,,0.00,WUHU216HW,2013-03-24 05:50:00,
2013-03-24 01:55:00,29.9,20.2,29.99,East,90,0.4,1.6,67,0.00,,,0.00,WUHU216HW,2013-03-24 05:55:00,
2013-03-24 02:00:00,29.7,19.7,29.99,East,90,0.0,2.0,66,0.00,,,0.00,WUHU216HW,2013-03-24 06:00:00,
2013-03-24 02:05:00,29.7,19.7,29.99,SE,135,1.1,2.0,66,0.00,,,0.00,WUHU216HW,2013-03-24 06:05:00,
2013-03-24 02:10:00,29.5,19.9,29.99,ENE,68,2.0,2.0,67,0.00,,,0.00,WUHU216HW,2013-03-24 06:10:00,
2013-03-24 02:15:00,29.5,20.3,30.00,East,90,2.0,2.0,68,0.00,,,0.00,WUHU216HW,2013-03-24 06:15:00,
2013-03-24 02:20:00,29.5,19.9,30.00,ESE,113,3.6,3.6,67,0.00,,,0.00,WUHU216HW,2013-03-24 06:20:00,
2013-03-24 02:25:00,29.5,19.9,29.99,East,90,1.1,3.6,67,0.00,,,0.00,WUHU216HW,2013-03-24 06:25:00,
2013-03-24 02:30:00,29.5,20.6,29.99,ESE,113,1.1,1.8,69,0.00,,,0.00,WUHU216HW,2013-03-24 06:30:00,
2013-03-24 02:35:00,29.3,20.4,30.00,ENE,68,0.4,1.8,69,0.00,,,0.00,WUHU216HW,2013-03-24 06:35:00,
2013-03-24 02:40:00,29.3,20.4,30.00,ENE,68,0.0,0.9,69,0.00,,,0.00,WUHU216HW,2013-03-24 06:40:00,
2013-03-24 02:45:00,29.2,20.6,29.99,ESE,113,0.0,1.1,70,0.00,,,0.00,WUHU216HW,2013-03-24 06:45:00,
2013-03-24 02:50:00,29.2,20.6,29.99,East,90,0.2,1.3,70,0.00,,,0.00,WUHU216HW,2013-03-24 06:50:00,
2013-03-24 02:55:00,29.2,20.6,29.99,ENE,68,0.7,1.3,70,0.00,,,0.00,WUHU216HW,2013-03-24 06:55:00,
2013-03-24 03:00:00,29.2,20.3,29.99,East,90,0.4,2.2,69,0.00,,,0.00,WUHU216HW,2013-03-24 07:00:00,
2013-03-24 03:05:00,29.0,20.4,29.98,ESE,113,0.7,2.2,70,0.00,,,0.00,WUHU216HW,2013-03-24 07:05:00,
2013-03-24 03:10:00,28.8,20.4,29.98,ESE,113,0.9,1.8,70,0.00,,,0.00,WUHU216HW,2013-03-24 07:10:00,
2013-03-24 03:15:00,28.8,20.4,29.98,ESE,113,0.9,2.5,70,0.00,,,0.00,WUHU216HW,2013-03-24 07:15:00,
2013-03-24 03:20:00,28.8,20.4,29.98,East,90,0.4,2.5,70,0.00,,,0.00,WUHU216HW,2013-03-24 07:20:00,
2013-03-24 03:25:00,28.6,20.4,29.97,East,90,0.0,0.9,71,0.00,,,0.00,WUHU216HW,2013-03-24 07:25:00,
2013-03-24 03:30:00,28.6,20.4,29.97,ESE,113,0.7,0.7,71,0.00,,,0.00,WUHU216HW,2013-03-24 07:30:00,
2013-03-24 03:35:00,28.4,20.6,29.97,ENE,68,0.0,2.0,72,0.00,,,0.00,WUHU216HW,2013-03-24 07:35:00,
2013-03-24 03:40:00,28.4,20.6,29.97,East,90,0.4,2.0,72,0.00,,,0.00,WUHU216HW,2013-03-24 07:40:00,
2013-03-24 03:45:00,28.6,20.4,29.97,East,90,1.6,1.6,71,0.00,,,0.00,WUHU216HW,2013-03-24 07:45:00,
2013-03-24 03:50:00,28.6,20.4,29.97,East,90,1.1,2.2,71,0.00,,,0.00,WUHU216HW,2013-03-24 07:50:00,
2013-03-24 03:55:00,28.6,20.4,29.97,East,90,0.0,2.2,71,0.00,,,0.00,WUHU216HW,2013-03-24 07:55:00,
2013-03-24 04:00:00,28.6,20.4,29.97,ESE,113,0.0,1.8,71,0.00,,,0.00,WUHU216HW,2013-03-24 08:00:00,
2013-03-24 04:05:00,28.4,20.6,29.97,East,90,0.0,0.4,72,0.00,,,0.00,WUHU216HW,2013-03-24 08:05:00,
2013-03-24 04:10:00,28.4,20.3,29.97,ENE,68,0.7,0.7,71,0.00,,,0.00,WUHU216HW,2013-03-24 08:10:00,
2013-03-24 04:15:00,28.4,20.6,29.98,ENE,68,0.0,1.6,72,0.00,,,0.00,WUHU216HW,2013-03-24 08:15:00,
2013-03-24 04:20:00,28.4,20.6,29.98,ENE,68,0.4,1.6,72,0.00,,,0.00,WUHU216HW,2013-03-24 08:20:00,
2013-03-24 04:25:00,28.4,20.6,29.99,ESE,113,0.0,1.1,72,0.00,,,0.00,WUHU216HW,2013-03-24 08:25:00,
2013-03-24 04:30:00,28.3,20.4,29.99,East,90,0.7,1.1,72,0.00,,,0.00,WUHU216HW,2013-03-24 08:30:00,
2013-03-24 04:35:00,28.3,20.4,29.99,ESE,113,1.3,1.3,72,0.00,,,0.00,WUHU216HW,2013-03-24 08:35:00,
2013-03-24 04:40:00,28.1,19.9,29.99,ESE,113,0.0,1.8,71,0.00,,,0.00,WUHU216HW,2013-03-24 08:40:00,
2013-03-24 04:45:00,28.1,20.3,29.99,ESE,113,0.4,1.8,72,0.00,,,0.00,WUHU216HW,2013-03-24 08:45:00,
2013-03-24 04:50:00,28.1,20.3,29.98,East,90,0.7,1.6,72,0.00,,,0.00,WUHU216HW,2013-03-24 08:50:00,
2013-03-24 04:55:00,28.1,20.3,29.98,WSW,248,0.4,1.8,72,0.00,,,0.00,WUHU216HW,2013-03-24 08:55:00,
2013-03-24 05:00:00,28.1,20.5,29.98,East,90,0.9,2.2,73,0.00,,,0.00,WUHU216HW,2013-03-24 09:00:00,
2013-03-24 05:05:00,28.1,20.5,29.98,ENE,68,1.1,2.2,73,0.00,,,0.00,WUHU216HW,2013-03-24 09:05:00,
2013-03-24 05:10:00,28.1,20.5,29.98,East,90,1.8,3.8,73,0.00,,,0.00,WUHU216HW,2013-03-24 09:10:00,
2013-03-24 05:15:00,28.1,20.5,29.98,ENE,68,2.0,3.8,73,0.00,,,0.00,WUHU216HW,2013-03-24 09:15:00,
2013-03-24 05:20:00,28.1,20.5,29.98,East,90,1.1,2.9,73,0.00,,,0.00,WUHU216HW,2013-03-24 09:20:00,
2013-03-24 05:25:00,27.9,20.7,29.98,East,90,0.9,2.9,74,0.00,,,0.00,WUHU216HW,2013-03-24 09:25:00,
2013-03-24 05:30:00,27.9,20.7,29.98,East,90,1.8,2.9,74,0.00,,,0.00,WUHU216HW,2013-03-24 09:30:00,
2013-03-24 05:35:00,27.9,20.7,29.98,East,90,1.3,2.5,74,0.00,,,0.00,WUHU216HW,2013-03-24 09:35:00,
2013-03-24 05:40:00,27.9,20.7,29.98,ENE,68,0.9,2.2,74,0.00,,,0.00,WUHU216HW,2013-03-24 09:40:00,
2013-03-24 05:45:00,27.9,20.7,29.97,SE,135,1.6,2.0,74,0.00,,,0.00,WUHU216HW,2013-03-24 09:45:00,
2013-03-24 05:50:00,27.7,20.5,29.97,East,90,1.3,1.8,74,0.00,,,0.00,WUHU216HW,2013-03-24 09:50:00,
2013-03-24 05:55:00,27.7,20.8,29.96,ENE,68,2.2,2.2,75,0.00,,,0.00,WUHU216HW,2013-03-24 09:55:00,
2013-03-24 06:00:00,27.7,20.8,29.96,East,90,1.1,2.9,75,0.00,,,0.00,WUHU216HW,2013-03-24 10:00:00,
2013-03-24 06:05:00,27.7,20.5,29.97,ESE,113,2.5,2.9,74,0.00,,,0.00,WUHU216HW,2013-03-24 10:05:00,
2013-03-24 06:10:00,27.7,20.5,29.97,East,90,1.3,3.6,74,0.00,,,0.00,WUHU216HW,2013-03-24 10:10:00,
2013-03-24 06:15:00,27.7,20.8,29.97,ENE,68,0.2,3.6,75,0.00,,,0.00,WUHU216HW,2013-03-24 10:15:00,
2013-03-24 06:20:00,27.7,20.8,29.96,East,90,2.5,2.5,75,0.00,,,0.00,WUHU216HW,2013-03-24 10:20:00,
2013-03-24 06:25:00,27.7,21.1,29.96,East,90,0.4,2.5,76,0.00,,,0.00,WUHU216HW,2013-03-24 10:25:00,
2013-03-24 06:30:00,27.7,21.1,29.96,ESE,113,1.1,1.8,76,0.00,,,0.00,WUHU216HW,2013-03-24 10:30:00,
2013-03-24 06:35:00,27.5,20.6,29.96,ENE,68,1.1,2.7,75,0.00,,,0.00,WUHU216HW,2013-03-24 10:35:00,
2013-03-24 06:40:00,27.5,20.9,29.96,ENE,68,1.1,2.7,76,0.00,,,0.00,WUHU216HW,2013-03-24 10:40:00,
2013-03-24 06:45:00,27.5,20.9,29.96,East,90,0.4,2.0,76,0.00,,,0.00,WUHU216HW,2013-03-24 10:45:00,
2013-03-24 06:50:00,27.5,20.9,29.97,ESE,113,1.1,1.3,76,0.00,,,0.00,WUHU216HW,2013-03-24 10:50:00,
2013-03-24 06:55:00,27.5,20.9,29.97,ESE,113,0.9,1.3,76,0.00,,,0.00,WUHU216HW,2013-03-24 10:55:00,
2013-03-24 07:00:00,27.5,20.9,29.97,ESE,113,0.9,1.3,76,0.00,,,0.00,WUHU216HW,2013-03-24 11:00:00,
2013-03-24 07:05:00,27.4,20.4,29.97,ESE,113,0.2,1.1,75,0.00,,,0.00,WUHU216HW,2013-03-24 11:05:00,
2013-03-24 07:10:00,27.4,20.4,29.98,ESE,113,1.6,1.6,75,0.00,,,0.00,WUHU216HW,2013-03-24 11:10:00,
2013-03-24 07:15:00,27.5,20.6,29.97,East,90,1.8,2.5,75,0.00,,,0.00,WUHU216HW,2013-03-24 11:15:00,
2013-03-24 07:20:00,27.5,20.6,29.97,ESE,113,1.1,2.5,75,0.00,,,0.00,WUHU216HW,2013-03-24 11:20:00,
2013-03-24 07:25:00,27.5,20.6,29.97,ESE,113,1.8,2.0,75,0.00,,,0.00,WUHU216HW,2013-03-24 11:25:00,
2013-03-24 07:30:00,27.5,20.6,29.97,East,90,2.0,2.9,75,0.00,,,0.00,WUHU216HW,2013-03-24 11:30:00,
2013-03-24 07:35:00,27.7,20.8,29.96,ESE,113,0.7,2.9,75,0.00,,,0.00,WUHU216HW,2013-03-24 11:35:00,
2013-03-24 07:40:00,27.5,20.6,29.96,East,90,1.8,1.8,75,0.00,,,0.00,WUHU216HW,2013-03-24 11:40:00,
2013-03-24 07:45:00,27.7,21.1,29.96,ENE,68,1.6,2.5,76,0.00,,,0.00,WUHU216HW,2013-03-24 11:45:00,
2013-03-24 07:50:00,27.7,20.8,29.96,ESE,113,1.1,2.5,75,0.00,,,0.00,WUHU216HW,2013-03-24 11:50:00,
2013-03-24 07:55:00,27.7,20.8,29.96,ESE,113,2.7,3.1,75,0.00,,,0.00,WUHU216HW,2013-03-24 11:55:00,
2013-03-24 08:00:00,27.7,20.8,29.96,ESE,113,1.3,3.1,75,0.00,,,0.00,WUHU216HW,2013-03-24 12:00:00,
2013-03-24 08:05:00,27.9,21.0,29.96,ESE,113,1.6,3.1,75,0.00,,,0.00,WUHU216HW,2013-03-24 12:05:00,
2013-03-24 08:10:00,28.1,21.2,29.96,North,0,0.4,3.1,75,0.00,,,0.00,WUHU216HW,2013-03-24 12:10:00,
2013-03-24 08:15:00,28.1,21.4,29.96,East,90,1.1,2.9,76,0.00,,,0.00,WUHU216HW,2013-03-24 12:15:00,
2013-03-24 08:20:00,28.3,21.3,29.95,East,90,1.1,3.6,75,0.00,,,0.00,WUHU216HW,2013-03-24 12:20:00,
2013-03-24 08:25:00,28.3,21.6,29.94,ESE,113,1.3,3.6,76,0.00,,,0.00,WUHU216HW,2013-03-24 12:25:00,
2013-03-24 08:30:00,28.4,21.8,29.95,ESE,113,2.0,3.1,76,0.00,,,0.00,WUHU216HW,2013-03-24 12:30:00,
2013-03-24 08:35:00,28.4,21.5,29.94,SE,135,3.8,3.8,75,0.00,,,0.00,WUHU216HW,2013-03-24 12:35:00,
2013-03-24 08:40:00,28.8,21.9,29.94,ENE,68,2.2,5.1,75,0.00,,,0.00,WUHU216HW,2013-03-24 12:40:00,
2013-03-24 08:45:00,28.8,21.5,29.94,ENE,68,0.4,5.1,74,0.00,,,0.00,WUHU216HW,2013-03-24 12:45:00,
2013-03-24 08:50:00,28.8,21.5,29.94,East,90,4.0,4.0,74,0.00,,,0.00,WUHU216HW,2013-03-24 12:50:00,
2013-03-24 08:55:00,29.0,21.7,29.93,ESE,113,4.5,4.5,74,0.00,,,0.00,WUHU216HW,2013-03-24 12:55:00,
2013-03-24 09:00:00,29.2,21.9,29.92,East,90,4.0,4.5,74,0.00,,,0.00,WUHU216HW,2013-03-24 13:00:00,
2013-03-24 09:05:00,29.2,21.9,29.92,East,90,1.1,4.9,74,0.00,,,0.00,WUHU216HW,2013-03-24 13:05:00,
2013-03-24 09:10:00,29.3,21.8,29.92,East,90,3.1,4.9,73,0.00,,,0.00,WUHU216HW,2013-03-24 13:10:00,
2013-03-24 09:15:00,29.5,21.9,29.92,SE,135,1.1,3.4,73,0.00,,,0.00,WUHU216HW,2013-03-24 13:15:00,
2013-03-24 09:20:00,29.7,22.1,29.92,East,90,3.4,4.5,73,0.00,,,0.00,WUHU216HW,2013-03-24 13:20:00,
2013-03-24 09:25:00,29.7,21.8,29.91,ENE,68,2.2,6.9,72,0.00,,,0.00,WUHU216HW,2013-03-24 13:25:00,
2013-03-24 09:30:00,29.9,22.0,29.92,ENE,68,2.9,6.9,72,0.00,,,0.00,WUHU216HW,2013-03-24 13:30:00,
2013-03-24 09:35:00,30.2,22.2,29.91,ESE,113,2.2,3.8,72,0.00,,,0.00,WUHU216HW,2013-03-24 13:35:00,
2013-03-24 09:40:00,30.2,22.0,29.91,ESE,113,0.7,3.8,71,0.00,,,0.00,WUHU216HW,2013-03-24 13:40:00,
2013-03-24 09:45:00,30.6,22.3,29.91,ESE,113,1.8,1.8,71,0.00,,,0.00,WUHU216HW,2013-03-24 13:45:00,
2013-03-24 09:50:00,30.8,22.1,29.91,ESE,113,3.6,3.8,70,0.00,,,0.00,WUHU216HW,2013-03-24 13:50:00,
2013-03-24 09:55:00,30.8,22.1,29.91,SE,135,0.9,3.8,70,0.00,,,0.00,WUHU216HW,2013-03-24 13:55:00,
2013-03-24 10:00:00,31.0,22.3,29.90,ENE,68,2.9,3.4,70,0.00,,,0.00,WUHU216HW,2013-03-24 14:00:00,
2013-03-24 10:05:00,31.0,22.0,29.90,ESE,113,1.1,3.4,69,0.00,,,0.00,WUHU216HW,2013-03-24 14:05:00,
2013-03-24 10:10:00,31.3,22.3,29.89,SSE,158,7.4,7.4,69,0.00,,,0.00,WUHU216HW,2013-03-24 14:10:00,
2013-03-24 10:15:00,31.5,22.1,29.88,ENE,68,1.6,8.5,68,0.00,,,0.00,WUHU216HW,2013-03-24 14:15:00,
2013-03-24 10:20:00,31.7,22.3,29.87,ENE,68,3.4,8.5,68,0.00,,,0.00,WUHU216HW,2013-03-24 14:20:00,
2013-03-24 10:25:00,32.0,22.7,29.87,NW,315,0.9,4.7,68,0.00,,,0.00,WUHU216HW,2013-03-24 14:25:00,
2013-03-24 10:30:00,32.2,23.2,29.86,ESE,113,2.7,4.7,69,0.00,,,0.00,WUHU216HW,2013-03-24 14:30:00,
2013-03-24 10:35:00,32.8,23.0,29.86,East,90,1.6,6.3,67,0.00,,,0.00,WUHU216HW,2013-03-24 14:35:00,
2013-03-24 10:40:00,32.6,22.8,29.86,East,90,4.7,6.3,67,0.00,,,0.00,WUHU216HW,2013-03-24 14:40:00,
2013-03-24 10:45:00,33.1,23.0,29.86,East,90,1.1,5.6,66,0.00,,,0.00,WUHU216HW,2013-03-24 14:45:00,
2013-03-24 10:50:00,33.1,22.6,29.85,East,90,2.5,4.3,65,0.00,,,0.00,WUHU216HW,2013-03-24 14:50:00,
2013-03-24 10:55:00,32.9,22.4,29.84,East,90,5.1,5.1,65,0.00,,,0.00,WUHU216HW,2013-03-24 14:55:00,
2013-03-24 11:00:00,33.3,22.8,29.84,SE,135,6.5,6.5,65,0.00,,,0.00,WUHU216HW,2013-03-24 15:00:00,
2013-03-24 11:05:00,33.8,22.9,29.84,ENE,68,3.6,6.5,64,0.00,,,0.00,WUHU216HW,2013-03-24 15:05:00,
2013-03-24 11:10:00,34.4,23.0,29.84,NNW,338,1.1,6.5,63,0.00,,,0.00,WUHU216HW,2013-03-24 15:10:00,
2013-03-24 11:15:00,34.4,22.7,29.83,ENE,68,5.4,5.4,62,0.00,,,0.00,WUHU216HW,2013-03-24 15:15:00,
2013-03-24 11:20:00,34.2,22.5,29.82,West,270,2.5,5.4,62,0.00,,,0.00,WUHU216HW,2013-03-24 15:20:00,
2013-03-24 11:25:00,34.9,23.2,29.82,ESE,113,4.0,5.4,62,0.00,,,0.00,WUHU216HW,2013-03-24 15:25:00,
2013-03-24 11:30:00,35.5,23.0,29.82,SE,135,5.6,5.6,60,0.00,,,0.00,WUHU216HW,2013-03-24 15:30:00,
2013-03-24 11:35:00,35.8,23.4,29.81,East,90,2.5,5.6,60,0.00,,,0.00,WUHU216HW,2013-03-24 15:35:00,
2013-03-24 11:40:00,35.8,23.0,29.81,ESE,113,0.9,2.7,59,0.00,,,0.00,WUHU216HW,2013-03-24 15:40:00,
2013-03-24 11:45:00,35.6,22.8,29.81,NNE,23,0.9,4.9,59,0.00,,,0.00,WUHU216HW,2013-03-24 15:45:00,
2013-03-24 11:50:00,35.6,22.8,29.81,ESE,113,1.8,4.9,59,0.00,,,0.00,WUHU216HW,2013-03-24 15:50:00,
2013-03-24 11:55:00,36.0,23.1,29.81,ESE,113,2.7,6.7,59,0.00,,,0.00,WUHU216HW,2013-03-24 15:55:00,
2013-03-24 12:00:00,36.4,22.6,29.81,ESE,113,4.0,6.7,57,0.00,,,0.00,WUHU216HW,2013-03-24 16:00:00,
2013-03-24 12:05:00,36.9,22.6,29.81,ESE,113,2.9,6.0,56,0.00,,,0.00,WUHU216HW,2013-03-24 16:05:00,
2013-03-24 12:10:00,37.1,22.3,29.80,East,90,4.3,5.6,55,0.00,,,0.00,WUHU216HW,2013-03-24 16:10:00,
2013-03-24 12:15:00,37.3,23.0,29.80,ESE,113,3.4,6.0,56,0.00,,,0.00,WUHU216HW,2013-03-24 16:15:00,
2013-03-24 12:20:00,37.6,22.4,29.79,ENE,68,6.5,6.5,54,0.00,,,0.00,WUHU216HW,2013-03-24 16:20:00,
2013-03-24 12:25:00,37.8,23.1,29.79,East,90,8.3,8.3,55,0.00,,,0.00,WUHU216HW,2013-03-24 16:25:00,
2013-03-24 12:30:00,37.4,22.2,29.78,ESE,113,4.5,8.3,54,0.00,,,0.00,WUHU216HW,2013-03-24 16:30:00,
2013-03-24 12:35:00,37.1,22.3,29.78,ENE,68,2.2,6.3,55,0.00,,,0.00,WUHU216HW,2013-03-24 16:35:00,
2013-03-24 12:40:00,37.6,22.4,29.77,ESE,113,4.0,8.3,54,0.00,,,0.00,WUHU216HW,2013-03-24 16:40:00,
2013-03-24 12:45:00,37.8,23.1,29.77,East,90,3.1,8.3,55,0.00,,,0.00,WUHU216HW,2013-03-24 16:45:00,
2013-03-24 12:50:00,38.5,23.2,29.76,East,90,4.3,6.7,54,0.00,,,0.00,WUHU216HW,2013-03-24 16:50:00,
2013-03-24 12:55:00,38.7,23.4,29.76,East,90,6.5,8.1,54,0.00,,,0.00,WUHU216HW,2013-03-24 16:55:00,
2013-03-24 13:00:00,38.5,22.8,29.76,ENE,68,2.5,8.1,53,0.00,,,0.00,WUHU216HW,2013-03-24 17:00:00,
2013-03-24 13:05:00,38.5,23.2,29.76,ESE,113,2.2,7.2,54,0.00,,,0.00,WUHU216HW,2013-03-24 17:05:00,
2013-03-24 13:10:00,38.9,23.1,29.76,ESE,113,4.7,4.7,53,0.00,,,0.00,WUHU216HW,2013-03-24 17:10:00,
2013-03-24 13:15:00,39.2,23.9,29.76,SE,135,2.0,4.7,54,0.00,,,0.00,WUHU216HW,2013-03-24 17:15:00,
2013-03-24 13:20:00,39.4,23.6,29.76,East,90,2.7,4.7,53,0.00,,,0.00,WUHU216HW,2013-03-24 17:20:00,
2013-03-24 13:25:00,39.4,23.1,29.75,ESE,113,4.5,6.0,52,0.00,,,0.00,WUHU216HW,2013-03-24 17:25:00,
2013-03-24 13:30:00,39.6,22.9,29.75,East,90,4.7,6.0,51,0.00,,,0.00,WUHU216HW,2013-03-24 17:30:00,
2013-03-24 13:35:00,39.8,23.0,29.75,ESE,113,4.9,6.5,51,0.00,,,0.00,WUHU216HW,2013-03-24 17:35:00,
2013-03-24 13:40:00,39.6,22.0,29.75,East,90,4.0,6.5,49,0.00,,,0.00,WUHU216HW,2013-03-24 17:40:00,
2013-03-24 13:45:00,39.4,22.3,29.75,ESE,113,2.7,4.3,50,0.00,,,0.00,WUHU216HW,2013-03-24 17:45:00,
2013-03-24 13:50:00,40.0,23.2,29.74,East,90,5.6,7.6,51,0.00,,,0.00,WUHU216HW,2013-03-24 17:50:00,
2013-03-24 13:55:00,40.3,23.1,29.74,East,90,4.3,7.6,50,0.00,,,0.00,WUHU216HW,2013-03-24 17:55:00,
2013-03-24 14:00:00,40.3,22.6,29.74,ENE,68,5.4,6.7,49,0.00,,,0.00,WUHU216HW,2013-03-24 18:00:00,
2013-03-24 14:05:00,40.0,22.2,29.74,East,90,1.6,5.4,49,0.00,,,0.00,WUHU216HW,2013-03-24 18:05:00,
2013-03-24 14:10:00,40.1,23.0,29.74,ESE,113,2.9,6.5,50,0.00,,,0.00,WUHU216HW,2013-03-24 18:10:00,
2013-03-24 14:15:00,40.3,22.6,29.74,ESE,113,2.5,6.5,49,0.00,,,0.00,WUHU216HW,2013-03-24 18:15:00,
2013-03-24 14:20:00,40.7,23.0,29.74,ENE,68,4.0,6.0,49,0.00,,,0.00,WUHU216HW,2013-03-24 18:20:00,
2013-03-24 14:25:00,40.7,23.0,29.73,SE,135,3.4,6.0,49,0.00,,,0.00,WUHU216HW,2013-03-24 18:25:00,
2013-03-24 14:30:00,41.6,23.2,29.73,SW,225,1.8,5.1,48,0.00,,,0.00,WUHU216HW,2013-03-24 18:30:00,
2013-03-24 14:35:00,41.9,24.1,29.73,East,90,4.5,6.9,49,0.00,,,0.00,WUHU216HW,2013-03-24 18:35:00,
2013-03-24 14:40:00,43.2,24.9,29.72,ESE,113,4.5,6.9,48,0.00,,,0.00,WUHU216HW,2013-03-24 18:40:00,
2013-03-24 14:45:00,43.7,24.2,29.72,SE,135,5.4,6.9,46,0.00,,,0.00,WUHU216HW,2013-03-24 18:45:00,
2013-03-24 14:50:00,44.3,25.2,29.72,ESE,113,4.7,5.4,47,0.00,,,0.00,WUHU216HW,2013-03-24 18:50:00,
2013-03-24 14:55:00,45.2,24.9,29.72,ENE,68,4.5,7.2,45,0.00,,,0.00,WUHU216HW,2013-03-24 18:55:00,
2013-03-24 15:00:00,44.8,23.1,29.72,SSE,158,0.9,7.2,42,0.00,,,0.00,WUHU216HW,2013-03-24 19:00:00,
2013-03-24 15:05:00,45.2,24.9,29.72,ESE,113,3.6,8.5,45,0.00,,,0.00,WUHU216HW,2013-03-24 19:05:00,
2013-03-24 15:10:00,45.7,23.9,29.72,ENE,68,2.2,8.5,42,0.00,,,0.00,WUHU216HW,2013-03-24 19:10:00,
2013-03-24 15:15:00,44.5,23.2,29.72,East,90,3.6,6.7,43,0.00,,,0.00,WUHU216HW,2013-03-24 19:15:00,
2013-03-24 15:20:00,44.8,24.1,29.72,ESE,113,1.1,6.7,44,0.00,,,0.00,WUHU216HW,2013-03-24 19:20:00,
2013-03-24 15:25:00,45.4,24.0,29.71,SE,135,2.0,6.3,43,0.00,,,0.00,WUHU216HW,2013-03-24 19:25:00,
2013-03-24 15:30:00,44.6,22.3,29.71,ENE,68,4.0,5.8,41,0.00,,,0.00,WUHU216HW,2013-03-24 19:30:00,
2013-03-24 15:35:00,43.7,22.6,29.71,SE,135,2.0,5.4,43,0.00,,,0.00,WUHU216HW,2013-03-24 19:35:00,
2013-03-24 15:40:00,43.7,23.1,29.70,ENE,68,4.5,6.9,44,0.00,,,0.00,WUHU216HW,2013-03-24 19:40:00,
2013-03-24 15:45:00,44.1,23.0,29.70,ESE,113,3.6,6.9,43,0.00,,,0.00,WUHU216HW,2013-03-24 19:45:00,
2013-03-24 15:50:00,43.7,23.1,29.70,ESE,113,3.6,5.4,44,0.00,,,0.00,WUHU216HW,2013-03-24 19:50:00,
2013-03-24 15:55:00,43.9,23.3,29.70,East,90,4.9,5.4,44,0.00,,,0.00,WUHU216HW,2013-03-24 19:55:00,
2013-03-24 16:00:00,43.9,23.3,29.70,ESE,113,4.7,7.8,44,0.00,,,0.00,WUHU216HW,2013-03-24 20:00:00,
2013-03-24 16:05:00,44.3,24.1,29.69,SE,135,6.9,7.8,45,0.00,,,0.00,WUHU216HW,2013-03-24 20:05:00,
2013-03-24 16:10:00,44.8,24.1,29.69,ESE,113,5.6,8.7,44,0.00,,,0.00,WUHU216HW,2013-03-24 20:10:00,
2013-03-24 16:15:00,44.8,23.6,29.69,SE,135,8.5,8.7,43,0.00,,,0.00,WUHU216HW,2013-03-24 20:15:00,
2013-03-24 16:20:00,45.0,23.8,29.68,SE,135,5.4,8.5,43,0.00,,,0.00,WUHU216HW,2013-03-24 20:20:00,
2013-03-24 16:25:00,45.0,23.8,29.68,ESE,113,4.3,7.2,43,0.00,,,0.00,WUHU216HW,2013-03-24 20:25:00,
2013-03-24 16:30:00,44.6,23.4,29.68,SE,135,4.3,6.0,43,0.00,,,0.00,WUHU216HW,2013-03-24 20:30:00,
2013-03-24 16:35:00,44.5,23.8,29.67,ESE,113,1.6,7.2,44,0.00,,,0.00,WUHU216HW,2013-03-24 20:35:00,
2013-03-24 16:40:00,44.3,23.6,29.68,SE,135,1.1,7.6,44,0.00,,,0.00,WUHU216HW,2013-03-24 20:40:00,
2013-03-24 16:45:00,44.3,24.1,29.67,SE,135,2.7,7.6,45,0.00,,,0.00,WUHU216HW,2013-03-24 20:45:00,
2013-03-24 16:50:00,44.3,23.6,29.67,East,90,4.3,5.4,44,0.00,,,0.00,WUHU216HW,2013-03-24 20:50:00,
2013-03-24 16:55:00,43.9,23.3,29.67,ESE,113,2.5,5.4,44,0.00,,,0.00,WUHU216HW,2013-03-24 20:55:00,
2013-03-24 17:00:00,43.9,23.3,29.67,ENE,68,6.9,6.9,44,0.00,,,0.00,WUHU216HW,2013-03-24 21:00:00,
2013-03-24 17:05:00,43.7,23.7,29.67,ESE,113,4.0,6.9,45,0.00,,,0.00,WUHU216HW,2013-03-24 21:05:00,
2013-03-24 17:10:00,43.7,23.1,29.66,ESE,113,4.9,6.3,44,0.00,,,0.00,WUHU216HW,2013-03-24 21:10:00,
2013-03-24 17:15:00,43.9,23.3,29.66,SE,135,5.4,5.4,44,0.00,,,0.00,WUHU216HW,2013-03-24 21:15:00,
2013-03-24 17:20:00,43.7,23.1,29.66,ESE,113,5.4,5.4,44,0.00,,,0.00,WUHU216HW,2013-03-24 21:20:00,
2013-03-24 17:25:00,43.6,23.0,29.66,ESE,113,5.4,5.4,44,0.00,,,0.00,WUHU216HW,2013-03-24 21:25:00,
2013-03-24 17:30:00,43.2,22.7,29.65,East,90,1.1,6.3,44,0.00,,,0.00,WUHU216HW,2013-03-24 21:30:00,
2013-03-24 17:35:00,43.0,23.1,29.65,ESE,113,4.0,6.5,45,0.00,,,0.00,WUHU216HW,2013-03-24 21:35:00,
2013-03-24 17:40:00,42.8,22.9,29.65,ESE,113,6.3,6.5,45,0.00,,,0.00,WUHU216HW,2013-03-24 21:40:00,
2013-03-24 17:45:00,42.7,22.7,29.65,ESE,113,6.0,6.3,45,0.00,,,0.00,WUHU216HW,2013-03-24 21:45:00,
2013-03-24 17:50:00,42.5,22.5,29.65,SE,135,4.7,9.2,45,0.00,,,0.00,WUHU216HW,2013-03-24 21:50:00,
2013-03-24 17:55:00,42.3,22.3,29.64,ESE,113,6.7,9.4,45,0.00,,,0.00,WUHU216HW,2013-03-24 21:55:00,
2013-03-24 18:00:00,42.1,22.7,29.64,SE,135,4.7,9.4,46,0.00,,,0.00,WUHU216HW,2013-03-24 22:00:00,
2013-03-24 18:05:00,42.1,22.7,29.64,SE,135,3.8,9.2,46,0.00,,,0.00,WUHU216HW,2013-03-24 22:05:00,
2013-03-24 18:10:00,41.9,23.0,29.63,ESE,113,5.4,9.2,47,0.00,,,0.00,WUHU216HW,2013-03-24 22:10:00,
2013-03-24 18:15:00,41.9,23.0,29.63,ESE,113,2.5,6.9,47,0.00,,,0.00,WUHU216HW,2013-03-24 22:15:00,
2013-03-24 18:20:00,41.8,22.9,29.63,ENE,68,3.8,7.2,47,0.00,,,0.00,WUHU216HW,2013-03-24 22:20:00,
2013-03-24 18:25:00,41.8,22.9,29.63,SE,135,3.4,9.6,47,0.00,,,0.00,WUHU216HW,2013-03-24 22:25:00,
2013-03-24 18:30:00,41.6,22.7,29.63,ESE,113,7.8,9.6,47,0.00,,,0.00,WUHU216HW,2013-03-24 22:30:00,
2013-03-24 18:35:00,41.4,22.5,29.62,ESE,113,0.0,10.5,47,0.00,,,0.00,WUHU216HW,2013-03-24 22:35:00,
2013-03-24 18:40:00,41.2,22.9,29.62,East,90,0.0,10.5,48,0.00,,,0.00,WUHU216HW,2013-03-24 22:40:00,
2013-03-24 18:45:00,41.0,22.7,29.62,SE,135,0.0,0.0,48,0.00,,,0.00,WUHU216HW,2013-03-24 22:45:00,
2013-03-24 18:50:00,41.0,22.7,29.62,ESE,113,0.0,0.0,48,0.00,,,0.00,WUHU216HW,2013-03-24 22:50:00,
2013-03-24 18:55:00,40.9,23.0,29.62,ESE,113,0.0,0.0,49,0.00,,,0.00,WUHU216HW,2013-03-24 22:55:00,
2013-03-24 19:00:00,40.9,23.0,29.62,East,90,0.0,0.0,49,0.00,,,0.00,WUHU216HW,2013-03-24 23:00:00,
2013-03-24 19:05:00,40.7,23.0,29.62,SE,135,0.0,0.0,49,0.00,,,0.00,WUHU216HW,2013-03-24 23:05:00,
2013-03-24 19:10:00,40.3,23.1,29.63,SSW,203,0.0,0.0,50,0.00,,,0.00,WUHU216HW,2013-03-24 23:10:00,
2013-03-24 19:15:00,40.1,23.0,29.62,SSW,203,0.0,0.0,50,0.00,,,0.00,WUHU216HW,2013-03-24 23:15:00,
2013-03-24 19:20:00,40.0,23.2,29.62,ESE,113,0.0,0.0,51,0.00,,,0.00,WUHU216HW,2013-03-24 23:20:00,
2013-03-24 19:25:00,39.8,23.5,29.63,ESE,113,0.0,0.0,52,0.00,,,0.00,WUHU216HW,2013-03-24 23:25:00,
2013-03-24 19:30:00,39.4,24.0,29.62,SE,135,0.0,0.0,54,0.00,,,0.00,WUHU216HW,2013-03-24 23:30:00,
2013-03-24 19:35:00,39.1,25.0,29.63,SSW,203,0.0,0.0,57,0.00,,,0.00,WUHU216HW,2013-03-24 23:35:00,
2013-03-24 19:40:00,38.5,26.9,29.63,SE,135,6.5,6.5,63,0.00,,,0.00,WUHU216HW,2013-03-24 23:40:00,
2013-03-24 19:45:00,37.8,26.3,29.63,ESE,113,6.3,8.5,63,0.00,,,0.00,WUHU216HW,2013-03-24 23:45:00,
2013-03-24 19:50:00,37.1,27.2,29.63,South,180,5.6,8.9,67,0.00,,,0.00,WUHU216HW,2013-03-24 23:50:00,
2013-03-24 19:55:00,36.5,27.7,29.63,SE,135,5.1,8.9,70,0.00,,,0.00,WUHU216HW,2013-03-24 23:55:00,
2013-03-24 20:00:00,36.0,27.8,29.63,South,180,1.8,7.6,72,0.00,,,0.00,WUHU216HW,2013-03-25 00:00:00,
2013-03-24 20:05:00,35.6,27.8,29.63,ESE,113,4.0,6.3,73,0.00,,,0.00,WUHU216HW,2013-03-25 00:05:00,
2013-03-24 20:11:00,35.3,28.1,29.62,SE,135,2.5,6.3,75,0.00,,,0.00,WUHU216HW,2013-03-25 00:11:00,
2013-03-24 20:16:00,34.9,28.7,29.61,SE,135,4.7,5.4,78,0.00,,,0.00,WUHU216HW,2013-03-25 00:16:00,
2013-03-24 20:21:00,34.6,28.4,29.62,ESE,113,2.9,5.4,78,0.00,,,0.00,WUHU216HW,2013-03-25 00:21:00,
2013-03-24 20:26:00,34.4,28.2,29.62,ESE,113,3.1,5.1,78,0.00,,,0.00,WUHU216HW,2013-03-25 00:26:00,
2013-03-24 20:31:00,34.2,28.0,29.62,ESE,113,2.9,5.1,78,0.00,,,0.00,WUHU216HW,2013-03-25 00:31:00,
2013-03-24 20:36:00,34.0,28.1,29.62,ESE,113,4.5,4.7,79,0.00,,,0.00,WUHU216HW,2013-03-25 00:36:00,
2013-03-24 20:41:00,34.0,28.1,29.62,ESE,113,2.2,4.5,79,0.00,,,0.00,WUHU216HW,2013-03-25 00:41:00,
2013-03-24 20:46:00,34.0,28.4,29.62,ESE,113,4.9,5.8,80,0.00,,,0.00,WUHU216HW,2013-03-25 00:46:00,
2013-03-24 20:51:00,33.8,28.5,29.62,ESE,113,2.7,5.8,81,0.00,,,0.00,WUHU216HW,2013-03-25 00:51:00,
2013-03-24 20:56:00,33.8,28.5,29.61,East,90,3.4,4.9,81,0.00,,,0.00,WUHU216HW,2013-03-25 00:56:00,
2013-03-24 21:01:00,33.7,28.4,29.62,SE,135,3.4,5.4,81,0.00,,,0.00,WUHU216HW,2013-03-25 01:01:00,
2013-03-24 21:06:00,33.7,28.4,29.62,ESE,113,4.9,6.3,81,0.00,,,0.00,WUHU216HW,2013-03-25 01:06:00,
2013-03-24 21:11:00,33.7,28.4,29.61,ESE,113,7.2,7.2,81,0.00,,,0.00,WUHU216HW,2013-03-25 01:11:00,
2013-03-24 21:16:00,33.7,28.4,29.61,SE,135,3.4,8.3,81,0.00,,,0.00,WUHU216HW,2013-03-25 01:16:00,
2013-03-24 21:21:00,33.7,28.7,29.61,ESE,113,7.6,8.3,82,0.00,,,0.00,WUHU216HW,2013-03-25 01:21:00,
2013-03-24 21:26:00,33.7,28.7,29.61,ESE,113,5.8,7.6,82,0.00,,,0.00,WUHU216HW,2013-03-25 01:26:00,
2013-03-24 21:31:00,33.5,28.3,29.61,SE,135,4.7,7.2,81,0.00,,,0.00,WUHU216HW,2013-03-25 01:31:00,
2013-03-24 21:36:00,33.5,28.3,29.61,ESE,113,4.7,7.6,81,0.00,,,0.00,WUHU216HW,2013-03-25 01:36:00,
2013-03-24 21:41:00,33.5,28.3,29.60,ESE,113,4.0,7.6,81,0.00,,,0.00,WUHU216HW,2013-03-25 01:41:00,
2013-03-24 21:46:00,33.5,28.5,29.60,ENE,68,8.3,8.3,82,0.00,,,0.00,WUHU216HW,2013-03-25 01:46:00,
2013-03-24 21:51:00,33.5,28.5,29.60,East,90,2.5,8.3,82,0.00,,,0.00,WUHU216HW,2013-03-25 01:51:00,
2013-03-24 21:56:00,33.3,28.4,29.60,East,90,3.4,7.2,82,0.00,,,0.00,WUHU216HW,2013-03-25 01:56:00,
2013-03-24 22:01:00,33.3,28.4,29.60,SE,135,4.0,7.2,82,0.00,,,0.00,WUHU216HW,2013-03-25 02:01:00,
2013-03-24 22:06:00,33.3,28.6,29.59,ESE,113,3.6,4.5,83,0.00,,,0.00,WUHU216HW,2013-03-25 02:06:00,
2013-03-24 22:11:00,33.1,28.8,29.59,East,90,6.5,9.2,84,0.00,,,0.00,WUHU216HW,2013-03-25 02:11:00,
2013-03-24 22:16:00,33.1,28.8,29.59,ESE,113,4.0,9.2,84,0.00,,,0.00,WUHU216HW,2013-03-25 02:16:00,
2013-03-24 22:21:00,33.1,28.4,29.58,ESE,113,3.6,8.7,83,0.00,,,0.00,WUHU216HW,2013-03-25 02:21:00,
2013-03-24 22:26:00,33.1,28.8,29.58,East,90,5.1,6.3,84,0.00,,,0.00,WUHU216HW,2013-03-25 02:26:00,
2013-03-24 22:31:00,33.1,28.8,29.58,ESE,113,6.9,8.3,84,0.00,,,0.00,WUHU216HW,2013-03-25 02:31:00,
2013-03-24 22:36:00,33.1,28.8,29.58,ESE,113,4.0,8.7,84,0.00,,,0.00,WUHU216HW,2013-03-25 02:36:00,
2013-03-24 22:41:00,33.3,28.6,29.58,ESE,113,3.8,8.7,83,0.00,,,0.00,WUHU216HW,2013-03-25 02:41:00,
2013-03-24 22:46:00,33.3,28.6,29.57,East,90,8.3,8.3,83,0.00,,,0.00,WUHU216HW,2013-03-25 02:46:00,
2013-03-24 22:51:00,33.5,28.8,29.57,SSE,158,8.1,13.6,83,0.00,,,0.00,WUHU216HW,2013-03-25 02:51:00,
2013-03-24 22:56:00,33.5,28.8,29.57,East,90,5.6,13.6,83,0.00,,,0.00,WUHU216HW,2013-03-25 02:56:00,
2013-03-24 23:01:00,33.5,28.5,29.57,ESE,113,4.0,6.3,82,0.00,,,0.00,WUHU216HW,2013-03-25 03:01:00,
2013-03-24 23:06:00,33.5,28.5,29.57,ESE,113,6.0,6.0,82,0.00,,,0.00,WUHU216HW,2013-03-25 03:06:00,
2013-03-24 23:11:00,33.7,28.7,29.56,SE,135,4.7,8.3,82,0.00,,,0.00,WUHU216HW,2013-03-25 03:11:00,
2013-03-24 23:16:00,33.7,28.7,29.56,East,90,4.5,8.3,82,0.00,,,0.00,WUHU216HW,2013-03-25 03:16:00,
2013-03-24 23:21:00,33.7,28.4,29.56,SE,135,5.4,6.3,81,0.00,,,0.00,WUHU216HW,2013-03-25 03:21:00,
2013-03-24 23:26:00,33.7,28.4,29.56,SE,135,6.3,7.2,81,0.00,,,0.00,WUHU216HW,2013-03-25 03:26:00,
2013-03-24 23:31:00,33.5,28.3,29.56,East,90,6.9,9.8,81,0.00,,,0.00,WUHU216HW,2013-03-25 03:31:00,
2013-03-24 23:36:00,33.5,28.3,29.55,ESE,113,2.5,9.8,81,0.00,,,0.00,WUHU216HW,2013-03-25 03:36:00,
2013-03-24 23:41:00,33.5,28.5,29.55,SSE,158,6.3,10.5,82,0.00,,,0.00,WUHU216HW,2013-03-25 03:41:00,
2013-03-24 23:46:00,33.5,28.3,29.56,ESE,113,7.8,10.5,81,0.00,,,0.00,WUHU216HW,2013-03-25 03:46:00,
2013-03-24 23:51:00,33.5,28.3,29.56,ESE,113,8.5,8.5,81,0.00,,,0.00,WUHU216HW,2013-03-25 03:51:00,
2013-03-24 23:56:00,33.5,28.5,29.55,ENE,68,6.3,8.5,82,0.00,,,0.00,WUHU216HW,2013-03-25 03:56:00,